Find Kosmos-1478

NORAD ID: 14176 Int'l Des: 1983-069 Owner: GUKOS Country: SU operational
LEOCIRCULAR

Live-Position

3D-Globus wird geladen...

Über Kosmos-1478

Beschreibung wird geladen...

Nächste Überflüge

Passes for default location (London). Set your location on the main map for personalized predictions.

Höhenverlauf

Loading altitude history...

Zweizeiliger Elementsatz

1 14176U 83069F 26106.08357030 .00000008 00000-0 16215-3 0 9992
2 14176 74.0222 121.9906 0012871 260.5730 122.0286 12.48262999949395
Epoch: 16. Apr. 2026 • Age: 11 hours

Aktueller Status

Höhe 1473.5 km
Geschwindigkeit 7.13 km/s
Subsatellitenpunkt -19.07°S, 86.14°W
Startdatum 6. Juli 1983
Alter 42.7 years
Typ other

Technische Details

Klassifizierung Payload
Masse 60.00 kg
Trockenmasse 60.00 kg
Gesamtmasse 60.00 kg
Länge 0.80 m
Durchmesser 0.80 m
Spannweite 0.80 m
Form Poly
Hersteller NPOPM
Bus-Typ Strela-1 11F625
Phasenstatus In Orbit
Besitzer/Staat GUKOS/SU

Most Searched